Regional Weather Roundup
Issued by NWS San Diego, CA

Home | Current Version | Previous Version | Text Only | Print | Product List | Glossary On
Versions: 1 2 3 4 5 6 7 8 9 10 11 12 13 14 15 16 17 18 19 20 21 22 23 24 25 26 27 28 29 30 31 32 33 34 35 36 37 38 39 40 41 42 43 44 45 46 47 48 49 50
000
ASUS46 KSGX 250011
RWRSGX

SAN DIEGO HOURLY WEATHER ROUNDUP
NATIONAL WEATHER SERVICE SAN DIEGO CA
500 PM PDT SUN MAY 24 2015

NOTE: "FAIR" INDICATES FEW OR NO CLOUDS BELOW 12,000 FEET WITH NO
SIGNIFICANT WEATHER AND/OR OBSTRUCTIONS TO VISIBILITY.

CAZ042-043-060-061-PZZ750-775-250100-

GREATER SAN DIEGO AREA

CITY           SKY/WX    TMP DP  RH WIND       PRES   REMARKS
LINDBERGH FLD  MOSUNNY   68  50  52 W9        29.98F
POINT LOMA       N/A     68  53  59 NW15        N/A
NATIONAL CITY    N/A     69  54  59 W3        29.96F
CHULA VISTA      N/A     68  54  62 CALM      29.90F
IMPERIAL BEACH MOSUNNY   68  51  54 NW12      29.97F
BROWN FIELD    MOSUNNY   68  50  52 W12       29.96F
MIRAMAR MCAS   PTSUNNY   69  49  48 NW8       29.97F
MONTGOMERY FLD PTSUNNY   65  50  58 NW7G17    29.97F

$$

NORTH SAN DIEGO COUNTY

CITY           SKY/WX    TMP DP  RH WIND       PRES   REMARKS
CAMP PENDLETON PTSUNNY   68  53  58 SW9       29.96F
OCEANSIDE AP   SUNNY     68  52  56 W10       29.96F
OCEANSIDE HBR    N/A     65  57  75 W9        29.99F
VISTA            N/A     66  53  62 SW7       29.96F
CARLSBAD       PTSUNNY   65  50  58 VRB7      29.96F
DEL MAR          N/A     66  55  66 CALM      29.99F
LA JOLLA SCRIP   N/A    N/A N/A N/A W2        29.95F
FALLBROOK        N/A     67  55  64 W3        29.95F
ESCONDIDO        N/A     63  53  69 W3        29.98F
SAN MARCOS       N/A     64  54  69 CALM      29.96F
POWAY            N/A     64  53  67 CALM      29.99F

$$

EAST SAN DIEGO COUNTY

CITY           SKY/WX    TMP DP  RH WIND       PRES   REMARKS
RAMONA         CLOUDY    59  50  72 NW12      29.98S
SANTEE LAKES     N/A     65  52  62 NW3       29.97S
LA MESA          N/A     65  51  62 NW3       29.91F
JAMUL            N/A     64  52  65 W2        29.95F
DESCANSO N       N/A     52  50  95 CALM      29.89F
MT. LAGUNA OBS   N/A     56  38  51 N5        29.62F
CAMPO            N/A     62  49  62 W16       29.92F

$$

ORANGE COUNTY AND THE LOS ANGELES BASIN

CITY           SKY/WX    TMP DP  RH WIND       PRES   REMARKS
JOHN WAYNE AP  MOSUNNY   67  52  58 VRB6      29.96F
SANTA ANA        N/A     72  57  58 CALM      29.91F
HUNTINGTON BCH   N/A     67  57  71 SW7       29.98F
LOS ALAMITOS   FAIR      68  55  62 S12       29.96F
FULLERTON      SUNNY     69  52  54 SW7       29.95F
LONG BEACH     MOSUNNY   69  52  54 S7        29.95F
L.A. AP        MOSUNNY   64  54  69 W9        29.97F
L.A. DOWNTOWN  SUNNY     68  53  58 CALM      29.95F

$$

THE INLAND EMPIRE

CITY           SKY/WX    TMP DP  RH WIND       PRES   REMARKS
CORONA         SUNNY     69  52  54 W9        29.96F
CHINO          PTSUNNY   70  52  52 SW9       29.97S
ONTARIO        PTSUNNY   67  51  56 SW13      29.96S
SAN BERNARDINO CLOUDY    66  48  52 W3        29.96F
RIVERSIDE AP   PTSUNNY   70  51  51 VRB6      29.95F
RIV CYN CREST    N/A     69  60  74 NW5         N/A
MORENO VALLEY    N/A     66  57  72 NW2       29.94F
MARCH ARB      CLOUDY    67  51  56 N10       29.96F
HORSETHIEF CYN   N/A     67  51  54 NW3       29.93S
PERRIS           N/A     66  54  65 S6          N/A
MENIFEE          N/A     69  56  63 NE2       30.02F
FRENCH VALLEY  CLOUDY    66  50  55 S6        29.96F
TEMECULA         N/A     67  54  61 S7        29.90F

$$

SAN BERNARDINO AND RIVERSIDE COUNTY MOUNTAINS

CITY           SKY/WX    TMP DP  RH WIND       PRES   REMARKS
BIG BEAR AP    SUNNY     59  30  33 NW6       30.06S
PINE COVE        N/A     50  47  90 N2        29.98S

$$

SOUTHERN DESERT INCLUDING THE COACHELLA VALLEY

CITY           SKY/WX    TMP DP  RH WIND       PRES   REMARKS
PALM SPRINGS   SUNNY     82  49  31 NW20G28   29.79F
THOUSAND PALMS   N/A     81  50  33 NW13      29.77F
PALM DESERT      N/A     85  51  30 NE10      27.78F
THERMAL        SUNNY     90  46  21 NW7       29.74S
BLYTHE         SUNNY     85  40  20 E5        29.78F
IMPERIAL AP    SUNNY     87  44  22 N5        29.77F
EL CENTRO NAS  SUNNY     88  42  20 W6        29.79F
YUMA AZ        SUNNY     85  43  22 CALM      29.80F
MEXICALI       SUNNY     86  41  20 N6        29.80F

$$

UPPER DESERT

CITY           SKY/WX    TMP DP  RH WIND       PRES   REMARKS
VICTORVILLE AP PTSUNNY   79  36  21 NW6       29.88F
HESPERIA         N/A     73  49  43 W10       29.96F
APPLE VALLEY     N/A     75  44  32 S10G21    29.92F
PALMDALE       SUNNY     76  46  34 SW18      29.91S
LANCASTER      SUNNY     75  47  36 SW22G29   29.90S
EDWARDS AFB    SUNNY     79  47  31 SW26G32   29.85S
DAGGETT        SUNNY     85  36  17 W8        29.80F
29 PALMS N     SUNNY     84  39  20 E7        29.88F
NEEDLES        MOSUNNY   89  38  16 VRB5      29.76F

$$

REGIONAL REPORTS

CITY           SKY/WX    TMP DP  RH WIND       PRES   REMARKS
SANTA BARBARA  SUNNY     68  51  54 SW6       29.94F
SANDBERG       CLOUDY    66  46  48 SW6       30.03S
LAS VEGAS NV   PTSUNNY   81  43  26 SW13      29.76F
PHOENIX AZ     MOSUNNY   84  38  19 SW9       29.79F
TIJUANA        MOSUNNY   66  46  48 NW7       29.99F
ENSENADA NW      N/A     64  32  30 NW2       29.95S

$$

OFFSHORE ISLANDS

CITY           SKY/WX    TMP DP  RH WIND       PRES   REMARKS
CATALINA ARPT  SUNNY     59  51  75 W6        29.99F
SAN NICOLAS IS SUNNY    N/A N/A N/A W15       29.98S

$$

MARINE AND OFFSHORE BUOY REPORTS

STATION/POSITION SKY/WX   TEMP    WIND        PRES    SWELL
                          AIR SEA DIR/SP/G            HT/PER/DIR
                          (F)     (DEG/KT/KT) (MB)    (FT/S/D)
TANNER BANKS               59 61  310/ 16/ 17 1015.9F   5/320/ 9
S CLEMENTE BASIN           60 63  300/ 12/ 14 1015.0F   3/220/17
SAN NICOLAS IS.               58                N/A     2/170/18
SO. S. ROSA ISLA           58 60  310/ 16/ 19 1014.6F   3/ 7
W. S. BARBARA CH           56 54  300/ 17/ 21 1014.2F   3/320/ 8
M. S. BARBARA CH           58 58  260/ 12/ 16 1014.5F
S. MONICA BASIN            60 64  350/  2/  4 1014.7F   3/330/17
S PEDRO CHANNEL               64                N/A     2/200/13
DANA POINT                    65                N/A     2/190/17
OCEANSIDE OFFSHR              65                N/A     2/200/17
TORREY PINES OTR              65                N/A     2/210/17
LA JOLLA 1                 63 65  320/  8/ 10 1015.2F
MISSION BAY BUOY              65                N/A     2/220/17
SAN DIEGO BAY                 68              1015.5F
POINT LOMA SOUTH              65                N/A     2/200/17

$$



USA.gov is the U.S. government's official web portal to all federal, state and local government web resources and services.